Regional Weather Roundup
Issued by NWS

Home | Current Version | Previous Version | Text Only | Print | Product List | Glossary Off
Versions: 1 2 3 4 5 6 7 8 9 10 11 12 13 14 15 16 17 18 19 20 21 22 23 24 25 26 27 28 29 30 31 32 33 34 35 36 37 38 39 40 41 42 43 44 45 46 47 48 49 50

000
ASUS43 KDMX 290807
RWRIA

WEATHER ROUNDUP FOR IOWA
NATIONAL WEATHER SERVICE DES MOINES IA
300 AM CDT MON SEP 29 2014

NOTE: "FAIR" INDICATES FEW OR NO CLOUDS BELOW 12,000 FEET WITH NO
SIGNIFICANT WEATHER AND/OR OBSTRUCTIONS TO VISIBILITY.

* - THESE STATIONS ARE NOT NWS STATIONS...THUS NOT UNDER NWS
QUALITY CONTROL.  THEY ALSO DO NOT REPORT WEATHER SUCH
AS PRECIPITATION OR FOG.

IAZ001>003-012>014-020>022-031>034-043>046-290900-
   NORTHWEST IOWA

CITY           SKY/WX    TMP DP  RH WIND       PRES   REMARKS
CARROLL *      CLOUDY    64  57  77 NW6       30.08R
CHEROKEE *     DRIZZLE   68  59  73 SE6       30.07R
DENISON *      MOCLDY    63  57  82 CALM      30.05S
LE MARS *        N/A     64  63  94 NW9       30.07R
ORANGE CITY *  CLEAR     66  57  72 NW5       30.08R
SHELDON *      CLOUDY    61  59  94 CALM      30.07S
SIOUX CITY     PTCLDY    65  60  84 E5        30.05R
SPENCER        MOCLDY    59  55  87 CALM      30.07R
STORM LAKE *   MOCLDY    64  59  82 S8        30.08S
$$

IAZ055>058-069>071-079>083-090>094-290900-
   SOUTHWEST IOWA

CITY           SKY/WX    TMP DP  RH WIND       PRES   REMARKS
ATLANTIC *     MOCLDY    55  55 100 CALM      30.07S
AUDUBON *      PTCLDY    57  52  82 CALM      30.08S
CLARINDA *     CLEAR     54  54 100 CALM      30.09S FOG
COUNCIL BLFS * CLEAR     63  59  88 CALM      30.05F
CRESTON *      CLEAR     61  55  82 S3        30.08F
HARLAN  *      CLEAR     57  57 100 CALM      30.10S
LAMONI         CLEAR     64  58  80 S5        30.07F
RED OAK *      CLEAR     55  55 100 CALM      30.07S
SHENANDOAH *   CLEAR     57  55  94 CALM      30.07S
$$

IAZ047>049-059>061-072>074-084-290900-
   CENTRAL IOWA

CITY           SKY/WX    TMP DP  RH WIND       PRES   REMARKS
AMES           CLEAR     55  54  96 CALM      30.07S FOG
ANKENY *       CLEAR     55  55 100 CALM      30.06F FOG
CHARITON *     PTCLDY    61  57  88 CALM      30.07S
DES MOINES     CLEAR     64  58  80 CALM      30.06S
GRINNELL*      CLEAR     57  54  88 CALM      30.07F
KNOXVILLE *    CLEAR     61  57  88 W3        30.05F
PELLA *        CLEAR     61  61 100 CALM      30.07F FOG
PERRY *        MOCLDY    59  57  94 SE3       30.06F
$$

IAZ004>006-015-016-023>025-035-036-290900-
   NORTH CENTRAL IOWA

CITY           SKY/WX    TMP DP  RH WIND       PRES   REMARKS
ALGONA *       MOCLDY    59  55  88 SW7       30.06F
CLARION *      PTCLDY    57  55  94 S6        30.06F
ESTHERVILLE    CLEAR     57  54  89 NW5       30.07R
FORT DODGE *   PTCLDY    59  55  88 CALM      30.07F
MASON CITY     CLEAR     57  55  93 SW5       30.07F
FOREST CITY *  FOG       52  52 100 CALM      30.06F VSB 1/2
IOWA FALLS *     N/A     55  54  94 CALM      30.08S
$$

IAZ007>011-017>019-026>030-037>042-050>054-066-290900-
   NORTHEAST IOWA

CITY           SKY/WX    TMP DP  RH WIND       PRES   REMARKS
CHARLES CITY * CLEAR     57  55  94 CALM      30.07S
CLINTON *      CLEAR     57  54  88 SW5       30.08S
DECORAH *      MOCLDY    61  55  82 CALM      30.05F
MONTICELLO *   CLEAR     54  54 100 CALM      30.06S FOG
OELWEIN *      CLEAR     59  55  88 CALM      30.07S
WATERLOO       CLEAR     53  52  96 CALM      30.05S FOG
$$

IAZ064-065-067-068-078-290900-
   EAST CENTRAL IOWA

CITY           SKY/WX    TMP DP  RH WIND       PRES   REMARKS
IOWA CITY      CLEAR     58  57  97 CALM      30.06F FOG
MT. PLEASANT * CLEAR     59  57  94 CALM      30.06F FOG
MUSCATINE *    CLEAR     55  54  94 CALM      30.06S FOG
QUAD CITIES    CLEAR     56  53  90 CALM      30.05F
$$

IAZ062-063-075>077-085>089-095>099-290900-
   SOUTHEAST IOWA

CITY           SKY/WX    TMP DP  RH WIND       PRES   REMARKS
BURLINGTON     CLEAR     59  58  96 CALM      30.05F
FAIRFIELD *    CLEAR     57  55  94 CALM      30.06F
FORT MADISON * CLEAR     63  59  88 CALM      30.07S
KEOKUK *       CLEAR     57  57 100 SW5       30.05F FOG
OSKALOOSA *      N/A     59  57  94 CALM      30.07S FOG
CENTERVILLE *  CLEAR     55  55 100 CALM      30.08F
OTTUMWA        FOG       57  56  96 CALM      30.06S VSB 1/4
WASHINGTON *   CLEAR     59  59 100 CALM      30.06S
$$

ABBREVIATIONS USED IN REMARKS
   TC - TEMPERATURES IN CELSIUS
  WCI - WIND CHILL INDEX
   HX - HEAT INDEX
  VSB - VISIBILITY
$$




USA.gov is the U.S. government's official web portal to all federal, state and local government web resources and services.